Regional Weather Roundup
Issued by NWS Northern Indiana

Home | Current Version | Previous Version | Graphics & Text | Print | Product List | Glossary On
Versions: 1 2 3 4 5 6 7 8 9 10 11 12 13 14 15 16 17 18 19 20 21 22 23 24 25 26 27 28 29 30 31 32 33 34 35 36 37 38 39 40 41 42 43 44 45 46 47 48 49 50
000
ASUS43 KIWX 240610
RWRIWX

KIWX WEATHER ROUNDUP
NATIONAL WEATHER SERVICE NORTHERN INDIANA
200 AM EDT SUN JUL 24 2016

NOTE: "FAIR" INDICATES FEW OR NO CLOUDS BELOW 12,000 FEET WITH NO
SIGNIFICANT WEATHER AND/OR OBSTRUCTIONS TO VISIBILITY.

* THESE STATIONS ARE NOT UNDER NWS QUALITY CONTROL. THEY ALSO MAY NOT
  REPORT WEATHER SUCH AS PRECIPITATION OR FOG.

INZ001>027-240700-
NORTHERN INDIANA

CITY           SKY/WX    TMP DP  RH WIND       PRES   REMARKS
GARY*          TSTM      72  72 100 SE3       30.01F
VALPARAISO     LGT RAIN  70  69  97 W8        30.03F
6HR MIN TEMP:  70; 6HR MAX TEMP:  86; 6HR PCP:  0.66;

MICHIGAN CITY* RAIN      70  70 100 SW7       30.03R
LAPORTE*       TSTM     N/A N/A N/A W10G24    30.02F
                                      6HR PCP:  0.50;

KNOX*          CLOUDY    70  68  94 W16G28    30.05R
SOUTH BEND     RAIN      71  70  96 W15       30.01R
6HR MIN TEMP:  72; 6HR MAX TEMP:  77; 6HR PCP:  0.52;

GOSHEN         CLOUDY    78  72  81 SW7       29.98
6HR MIN TEMP:  76; 6HR MAX TEMP:  86; 6HR PCP:  0.03;

MONTICELLO*    CLOUDY    77  73  87 N24G32    30.03R
6HR MIN TEMP:  76; 6HR MAX TEMP:  85;

LOGANSPORT*    CLOUDY    77  73  88 W6        30.02R
ROCHESTER*     CLOUDY    81  79  94 W8        30.01R
WARSAW*        CLOUDY    79  75  89 W6        29.99R
ANGOLA*          N/A     75  70  83 CALM      29.98R
FORT WAYNE     CLOUDY    77  74  90 SW6       29.98R
6HR MIN TEMP:  77; 6HR MAX TEMP:  87;

HUNTINGTON*    CLOUDY   N/A N/A N/A SW3       29.98S
PERU/GRISSOM   MOCLDY    76  76 100 W3        29.99R
6HR MIN TEMP:  76; 6HR MAX TEMP:  87;

MARION*        CLOUDY    74  72  92 SW6       30.00S
6HR MIN TEMP:  67; 6HR MAX TEMP:  89;


$$
INZ028>050-240700-
CENTRAL INDIANA

CITY           SKY/WX    TMP DP  RH WIND       PRES   REMARKS
LAFAYETTE      CLOUDY    77  76  96 CALM      29.99R
6HR MIN TEMP:  76; 6HR MAX TEMP:  86;

KOKOMO*        PTCLDY    75  70  83 S5        29.99F
6HR MIN TEMP:  75; 6HR MAX TEMP:  86;

MUNCIE*        PTCLDY    81  73  76 SW5       30.00R
6HR MIN TEMP:  78; 6HR MAX TEMP:  89;

INDIANAPOLIS   CLOUDY    78  72  81 S5        30.00R
6HR MIN TEMP:  77; 6HR MAX TEMP:  87;


$$
MIZ043>046-050>051-056>058-064>065-071>073-077>080-240700-
SOUTHWEST LOWER MICHIGAN

CITY           SKY/WX    TMP DP  RH WIND       PRES   REMARKS
BATTLE CREEK   CLOUDY    74  70  87 NW7       30.00R
6HR MIN TEMP:  74; 6HR MAX TEMP:  83;

BENTON HARBOR  HVY RAIN  73  70  90 SW12G25   30.00R FOG
6HR MIN TEMP:  73; 6HR MAX TEMP:  82; 6HR PCP:  0.20;

COLDWATER*     CLOUDY    75  73  93 CALM      29.98R
6HR MIN TEMP:  75; 6HR MAX TEMP:  83;

HOLLAND        LGT RAIN  72  69  90 SE3       29.96F
6HR MIN TEMP:  72; 6HR MAX TEMP:  82; 6HR PCP:  0.04;

GRAND RAPIDS   LGT RAIN  75  69  81 W13       29.99R
6HR MIN TEMP:  75; 6HR MAX TEMP:  87; 6HR PCP: TRACE;

KALAMAZOO      CLOUDY    76  71  85 N7        29.98R
6HR MIN TEMP:  76; 6HR MAX TEMP:  86; 6HR PCP:  0.02;

STURGIS*       CLOUDY    75  72  91 CALM      29.97S
6HR MIN TEMP:  75; 6HR MAX TEMP:  82;

THREE RIVERS*  FAIR      76  74  91 CALM      29.97F
6HR MIN TEMP:  76; 6HR MAX TEMP:  86;


$$
OHZ001>008-015>018-024>025-240700-
NORTHWEST OHIO

CITY           SKY/WX    TMP DP  RH WIND       PRES   REMARKS
WAUSEON*       FAIR      75  70  83 CALM      29.99R
DEFIANCE       CLOUDY    79  70  74 CALM      29.97R
6HR MIN TEMP:  77; 6HR MAX TEMP:  88;

FINDLAY        MOCLDY    76  69  79 S3        29.98S
6HR MIN TEMP:  76; 6HR MAX TEMP:  89;

TOLEDO EXPRESS CLOUDY    76  71  85 CALM      29.97R
6HR MIN TEMP:  74; 6HR MAX TEMP:  89;

TOLEDO METCALF CLOUDY    78  69  73 E5        29.97F
6HR MIN TEMP:  77; 6HR MAX TEMP:  89;

LIMA           PTCLDY    77  73  87 CALM      29.99F
6HR MIN TEMP:  75; 6HR MAX TEMP:  87;


$$
AND FOR LAKE MICHIGAN COASTAL AND OPEN LAKE BUOY OBSERVATIONS

STATION/POSITION TEMP    WIND        PRES    VSBY  WAVE
                 AIR SEA DIR/SP/G                  HT/PER
                 (F)     (DEG/KT/KT) (MB)    (MI)  (FT/S)
CALUMET HARBOR    70     220/  3/  8 1015.9R
MICHIGAN CITY     71                   N/A
BURNS HARBOR      71     210/ 13     1016.9R
SAINT JOSEPH      74     210/  7/ 14 1015.9R
SOUTH LAKE BUOY   73 73  190/ 14/ 16 1013.2F         1/ 3
4 MI NW BRIDGMAN  72 75  250/  8/ 14 1015.4R         2/ 2
MICHIGAN CITY     71 72  260/ 10/ 16   N/A           2/ 5

$$
&&




USA.gov is the U.S. government's official web portal to all federal, state and local government web resources and services.